Weather History for KLXN - October, 2014

Change the Weather History Date:

Sunday, October 26, 2014

  Actual Average Record
Temperature  
Mean Temperature 61 °F -  
Max Temperature 84 °F 56 °F 84 °F (2014)
Min Temperature 38 °F 33 °F 12 °F (1997)
Degree Days  
Heating Degree Days 4    
Growing Degree Days 11 (Base 50)    
Moisture  
Dew Point 45 °F    
Average Humidity 69    
Maximum Humidity 97    
Minimum Humidity 24    
Precipitation  
Precipitation 0.00 in - - ()
Sea Level Pressure  
Sea Level Pressure 29.71 in    
Wind  
Wind Speed 5 mph (NE)    
Max Wind Speed 13 mph    
Max Gust Speed 17 mph    
Visibility 8 miles    
Events Fog    
Averages and records for this station are not official NWS values.
T = Trace of Precipitation, MM = Missing Value Source: NWS Daily Summary

Daily Weather History Graph

Daily Weather History Graph

Search for Another Location

Airport or City:

Trip Planner

Search our weather history database for the weather conditions in past years. The results will help you decide how hot, cold, wet, or windy it might be!

Date:

Astronomy

Oct. 26, 2014 Rise Set
Actual Time 8:02 AM CDT 6:42 PM CDT
Civil Twilight 7:34 AM CDT 7:10 PM CDT
Nautical Twilight 7:02 AM CDT 7:43 PM CDT
Astronomical Twilight 6:30 AM CDT 8:14 PM CDT
Moon 10:43 AM CDT (10/26) 8:55 PM CDT (10/26)
Length of Visible Light 11h 36m
Length of Day
10h 40m
Waxing Crescent, 8% of the Moon is Illuminated
Oct 26
Waxing Crescent
Oct 30
First Quarter
Nov 6
Full
Nov 14
Last Quarter
Nov 22
New

Hourly Weather History & Observations

Time (CDT) Temp. Windchill Dew Point Humidity Pressure Visibility Wind Dir Wind Speed Gust Speed Precip Events Conditions
12:15 AM 54.5 °F - 44.8 °F 70% 29.93 in 10.0 mi East 5.8 mph - N/A   Clear
12:35 AM 52.9 °F - 44.6 °F 73% 29.92 in 10.0 mi East 5.8 mph - N/A   Clear
12:55 AM 52.0 °F - 44.4 °F 75% 29.92 in 10.0 mi ENE 6.9 mph - N/A   Clear
1:15 AM 51.1 °F - 44.2 °F 77% 29.90 in 10.0 mi East 5.8 mph - N/A   Clear
1:35 AM 51.8 °F - 44.2 °F 75% 29.89 in 10.0 mi East 5.8 mph - N/A   Clear
1:55 AM 50.9 °F - 43.9 °F 77% 29.89 in 10.0 mi East 4.6 mph - N/A   Clear
2:15 AM 49.6 °F - 43.7 °F 80% 29.87 in 10.0 mi East 5.8 mph - N/A   Clear
2:35 AM 48.6 °F - 42.8 °F 80% 29.85 in 10.0 mi East 4.6 mph - N/A   Clear
2:55 AM 48.0 °F - 43.2 °F 83% 29.85 in 10.0 mi NE 4.6 mph - N/A   Clear
3:15 AM 46.8 °F - 42.8 °F 86% 29.84 in 10.0 mi East 3.5 mph - N/A   Clear
3:35 AM 46.2 °F 45.0 °F 42.4 °F 87% 29.83 in 10.0 mi ENE 3.5 mph - N/A   Clear
3:55 AM 46.6 °F - 42.6 °F 86% 29.82 in 10.0 mi East 3.5 mph - N/A   Clear
4:15 AM 46.2 °F 44.1 °F 43.0 °F 88% 29.81 in 10.0 mi East 4.6 mph - N/A   Clear
4:35 AM 44.6 °F 42.2 °F 41.4 °F 88% 29.80 in 10.0 mi East 4.6 mph - N/A   Clear
4:55 AM 44.6 °F 43.1 °F 41.9 °F 90% 29.78 in 10.0 mi East 3.5 mph - N/A   Clear
5:15 AM 44.6 °F 42.2 °F 41.9 °F 90% 29.78 in 10.0 mi East 4.6 mph - N/A   Clear
5:35 AM 43.2 °F 41.5 °F 40.8 °F 91% 29.78 in 10.0 mi ENE 3.5 mph - N/A   Clear
5:55 AM 43.5 °F 41.9 °F 41.7 °F 93% 29.76 in 10.0 mi East 3.5 mph - N/A   Clear
6:15 AM 43.0 °F - 41.4 °F 94% 29.76 in 10.0 mi Calm Calm - N/A   Clear
6:35 AM 39.6 °F - 37.9 °F 94% 29.76 in 10.0 mi Calm Calm - N/A   Clear
6:55 AM 40.1 °F - 38.5 °F 94% 29.75 in 10.0 mi Calm Calm - N/A   Clear
7:15 AM 40.3 °F - 38.5 °F 93% 29.74 in 10.0 mi Calm Calm - N/A   Clear
7:35 AM 39.2 °F - 37.6 °F 94% 29.73 in 10.0 mi Calm Calm - N/A   Clear
7:55 AM 38.5 °F - 36.7 °F 93% 29.73 in 10.0 mi Calm Calm - N/A   Clear
8:15 AM 38.8 °F - 37.4 °F 95% 29.72 in 0.8 mi Calm Calm - N/A   Mist
8:35 AM 39.2 °F - 37.8 °F 95% 29.71 in 0.2 mi Calm Calm - N/A Fog Fog
8:55 AM 41.5 °F 37.8 °F 40.5 °F 96% 29.73 in 2.5 mi NW 5.8 mph - N/A   Scattered Clouds
9:15 AM 45.7 °F 44.4 °F 44.8 °F 97% 29.75 in 5.0 mi WNW 3.5 mph - N/A   Overcast
9:35 AM 47.7 °F - 46.6 °F 96% 29.75 in 7.0 mi NW 5.8 mph - N/A   Overcast
9:55 AM 49.6 °F - 47.5 °F 92% 29.75 in 10.0 mi NW 4.6 mph - N/A   Overcast
10:15 AM 52.5 °F - 49.1 °F 88% 29.74 in 10.0 mi NW 5.8 mph - N/A   Scattered Clouds
10:35 AM 54.5 °F - 49.8 °F 84% 29.74 in 10.0 mi WNW 5.8 mph - N/A   Clear
10:55 AM 56.3 °F - 50.4 °F 80% 29.73 in 10.0 mi NNW 4.6 mph - N/A   Clear
11:15 AM 58.8 °F - 51.4 °F 76% 29.71 in 10.0 mi NNW 5.8 mph - N/A   Clear
11:35 AM 61.2 °F - 52.0 °F 72% 29.71 in 10.0 mi North 3.5 mph - N/A   Clear
11:55 AM 63.9 °F - 52.3 °F 66% 29.69 in 10.0 mi ENE 3.5 mph - N/A   Clear
12:15 PM 66.4 °F - 52.3 °F 61% 29.68 in 10.0 mi NNE 6.9 mph - N/A   Clear
12:35 PM 68.9 °F - 52.2 °F 55% 29.68 in 10.0 mi North 5.8 mph - N/A   Clear
12:55 PM 71.1 °F - 52.5 °F 52% 29.67 in 7.0 mi North 3.5 mph - N/A   Clear
1:15 PM 72.7 °F - 52.0 °F 48% 29.66 in 7.0 mi NNE 4.6 mph - N/A   Clear
1:35 PM 74.8 °F - 51.4 °F 44% 29.64 in 4.0 mi NE 6.9 mph - N/A   Haze
1:55 PM 76.8 °F - 50.7 °F 40% 29.64 in 5.0 mi ENE 3.5 mph - N/A   Haze
2:15 PM 78.1 °F - 50.0 °F 37% 29.62 in 5.0 mi East 5.8 mph - N/A   Haze
2:35 PM 80.6 °F - 49.1 °F 33% 29.62 in 10.0 mi NNW 5.8 mph - N/A   Clear
2:55 PM 84.6 °F - 45.7 °F 26% 29.61 in 10.0 mi NE 6.9 mph - N/A   Clear
3:15 PM 84.4 °F - 43.9 °F 24% 29.60 in 10.0 mi NNE 11.5 mph 17.3 mph N/A   Clear
3:35 PM 83.8 °F - 44.8 °F 25% 29.60 in 10.0 mi NNE 11.5 mph - N/A   Clear
3:55 PM 83.7 °F - 45.0 °F 26% 29.60 in 10.0 mi NE 12.7 mph 16.1 mph N/A   Clear
4:15 PM 83.3 °F - 45.3 °F 26% 29.60 in 10.0 mi NE 12.7 mph - N/A   Clear
4:35 PM 82.8 °F - 45.1 °F 27% 29.60 in 10.0 mi NE 11.5 mph - N/A   Clear
4:55 PM 83.3 °F - 43.2 °F 24% 29.60 in 10.0 mi NNE 9.2 mph - N/A   Clear
5:15 PM 82.4 °F - 43.5 °F 25% 29.60 in 10.0 mi ENE 8.1 mph - N/A   Clear
5:35 PM 80.6 °F - 47.1 °F 31% 29.61 in 10.0 mi ENE 6.9 mph - N/A   Clear
5:55 PM 77.5 °F - 49.3 °F 37% 29.61 in 10.0 mi East 6.9 mph - N/A   Clear
6:15 PM 75.2 °F - 48.7 °F 39% 29.62 in 10.0 mi East 4.6 mph - N/A   Clear
6:35 PM 72.5 °F - 49.3 °F 44% 29.62 in 10.0 mi SE 3.5 mph - N/A   Clear
6:55 PM 67.6 °F - 49.5 °F 52% 29.63 in 1.2 mi SE 4.6 mph - N/A   Haze
7:15 PM 66.7 °F - 50.0 °F 55% 29.63 in 10.0 mi SE 4.6 mph - N/A   Clear
7:35 PM 65.1 °F - 49.8 °F 58% 29.64 in 4.0 mi Calm Calm - N/A   Haze
7:55 PM 59.9 °F - 47.5 °F 64% 29.64 in 10.0 mi Calm Calm - N/A   Clear
8:15 PM 59.2 °F - 49.1 °F 69% 29.66 in 3.0 mi Calm Calm - N/A   Haze
8:35 PM 57.7 °F - 47.1 °F 68% 29.65 in 4.0 mi Calm Calm - N/A   Haze
8:55 PM 55.4 °F - 46.9 °F 73% 29.64 in 2.5 mi Calm Calm - N/A   Haze
9:15 PM 53.8 °F - 45.3 °F 73% 29.64 in 7.0 mi Calm Calm - N/A   Clear
9:35 PM 54.1 °F - 46.8 °F 76% 29.64 in 10.0 mi NNW 3.5 mph - N/A   Clear
9:55 PM 52.3 °F - 45.5 °F 78% 29.64 in 10.0 mi Calm Calm - N/A   Clear
10:15 PM 50.7 °F - 45.0 °F 81% 29.64 in 2.5 mi Calm Calm - N/A   Haze
10:35 PM 50.5 °F - 45.5 °F 83% 29.64 in 4.0 mi North 3.5 mph - N/A   Haze
10:55 PM 49.8 °F - 45.1 °F 84% 29.63 in 10.0 mi Calm Calm - N/A   Clear
11:15 PM 49.3 °F - 44.1 °F 82% 29.63 in 10.0 mi WSW 3.5 mph - N/A   Clear
11:35 PM 48.6 °F - 43.7 °F 83% 29.63 in 5.0 mi West 3.5 mph - N/A   Haze
11:55 PM 47.5 °F - 43.3 °F 86% 29.62 in 10.0 mi Calm Calm - N/A   Clear